TimeEST,TemperatureF,Dew PointF,Humidity,Sea Level PressureIn,VisibilityMPH,Wind Direction,Wind SpeedMPH,Gust SpeedMPH,PrecipitationIn,Events,Conditions,WindDirDegrees,DateUTC
12:52 AM,48.2,44.6,87,30.41,10.0,NE,4.6,-,N/A,,Overcast,50,2013-01-28 05:52:00
12:55 AM,48.2,43.9,85,30.41,10.0,NE,4.6,-,N/A,,Overcast,40,2013-01-28 05:55:00
1:30 AM,48.2,44.6,87,30.40,10.0,Calm,Calm,-,N/A,,Overcast,0,2013-01-28 06:30:00
1:55 AM,48.6,44.4,86,30.40,10.0,NE,3.5,-,N/A,,Overcast,40,2013-01-28 06:55:00
2:25 AM,48.2,44.6,87,30.39,10.0,NE,3.5,-,N/A,,Overcast,40,2013-01-28 07:25:00
2:55 AM,48.7,44.8,86,30.40,10.0,NNE,4.6,-,N/A,,Overcast,30,2013-01-28 07:55:00
3:55 AM,48.6,45.1,88,30.38,10.0,Calm,Calm,-,N/A,,Overcast,0,2013-01-28 08:55:00
4:12 AM,48.2,44.6,87,30.38,10.0,Calm,Calm,-,N/A,,Scattered Clouds,0,2013-01-28 09:12:00
4:55 AM,46.0,44.2,93,30.38,10.0,North,4.6,-,N/A,,Scattered Clouds,350,2013-01-28 09:55:00
5:05 AM,46.4,44.6,93,30.38,10.0,NNW,3.5,-,N/A,,Mostly Cloudy,340,2013-01-28 10:05:00
5:21 AM,46.4,44.6,93,30.38,9.0,North,3.5,-,N/A,,Overcast,350,2013-01-28 10:21:00
5:55 AM,45.9,44.2,94,30.39,8.0,NNW,3.5,-,N/A,,Overcast,340,2013-01-28 10:55:00
6:01 AM,46.4,44.6,93,30.39,9.0,Calm,Calm,-,N/A,,Mostly Cloudy,0,2013-01-28 11:01:00
6:09 AM,44.6,42.8,93,30.39,10.0,NNW,3.5,-,N/A,,Scattered Clouds,340,2013-01-28 11:09:00
6:55 AM,44.8,43.2,94,30.41,10.0,NNW,3.5,-,N/A,,Mostly Cloudy,340,2013-01-28 11:55:00
7:55 AM,45.5,42.6,90,30.42,10.0,NNW,3.5,-,N/A,,Overcast,340,2013-01-28 12:55:00
8:55 AM,47.3,42.1,82,30.42,10.0,Calm,Calm,-,N/A,,Mostly Cloudy,0,2013-01-28 13:55:00
9:55 AM,50.7,43.5,76,30.42,10.0,Calm,Calm,-,N/A,,Overcast,0,2013-01-28 14:55:00
10:55 AM,58.3,46.4,65,30.42,10.0,NNE,4.6,-,N/A,,Scattered Clouds,20,2013-01-28 15:55:00
11:55 AM,64.2,49.3,58,30.40,10.0,Calm,Calm,-,N/A,,Clear,0,2013-01-28 16:55:00
12:55 PM,70.2,53.8,56,30.35,10.0,Variable,3.5,-,N/A,,Clear,0,2013-01-28 17:55:00
1:55 PM,70.7,55.4,58,30.31,10.0,SE,4.6,-,N/A,,Mostly Cloudy,140,2013-01-28 18:55:00
2:55 PM,71.6,55.8,57,30.30,10.0,Variable,3.5,-,N/A,,Scattered Clouds,0,2013-01-28 19:55:00
3:55 PM,71.4,57.0,60,30.29,10.0,Calm,Calm,-,N/A,,Partly Cloudy,0,2013-01-28 20:55:00
4:55 PM,69.6,58.1,67,30.29,10.0,ESE,8.1,-,N/A,,Mostly Cloudy,110,2013-01-28 21:55:00
5:55 PM,66.9,58.5,74,30.30,10.0,ESE,4.6,-,N/A,,Partly Cloudy,120,2013-01-28 22:55:00
6:55 PM,61.3,56.8,85,30.31,10.0,East,4.6,-,N/A,,Clear,80,2013-01-28 23:55:00
7:55 PM,57.7,55.4,92,30.31,10.0,East,4.6,-,N/A,,Clear,100,2013-01-29 00:55:00
8:55 PM,56.8,55.6,96,30.30,10.0,Calm,Calm,-,N/A,,Clear,0,2013-01-29 01:55:00
9:55 PM,54.3,54.3,100,30.30,10.0,Calm,Calm,-,N/A,,Clear,0,2013-01-29 02:55:00
10:55 PM,53.4,53.4,100,30.30,10.0,Calm,Calm,-,N/A,,Clear,0,2013-01-29 03:55:00
11:11 PM,53.6,53.6,100,30.29,8.0,Calm,Calm,-,N/A,,Clear,0,2013-01-29 04:11:00
11:17 PM,53.6,53.6,100,30.29,7.0,Calm,Calm,-,N/A,,Clear,0,2013-01-29 04:17:00
11:54 PM,51.8,51.8,100,30.28,6.0,Calm,Calm,-,N/A,,Clear,0,2013-01-29 04:54:00
11:55 PM,51.8,51.8,100,30.28,6.0,Calm,Calm,-,N/A,,Clear,0,2013-01-29 04:55:00